Location: Brede
(50.9167°N, 0.6000°E)
Time: 06:47:12
(UTC+00:00)

Transit 4A - All Passes

Search period start: 27 November 2020 00:00
Search period end: 07 December 2020 00:00
Orbit: 862 x 982 km, 66.8° (Epoch: 26 November)

Date Brightness Start Highest point End Pass type
(mag) Time Alt. Az. Time Alt. Az. Time Alt. Az.
27 Nov - 07:34:52 10° S 07:40:24 33° ESE 07:46:02 10° NE daylight
27 Nov - 09:20:07 10° SW 09:26:27 65° NW 09:32:53 10° NE daylight
27 Nov - 11:08:49 10° WNW 11:14:04 26° NNW 11:19:20 10° NNE daylight
27 Nov - 12:58:15 10° NW 13:02:45 19° N 13:07:13 10° NE daylight
27 Nov - 14:45:36 10° NNW 14:51:15 31° NNE 14:56:46 10° E daylight
27 Nov - 16:32:01 10° NW 16:38:28 89° NE 16:44:43 10° SE visible
27 Nov - 18:19:27 10° WNW 18:24:03 21° WSW 18:28:34 10° SSW visible
28 Nov - 07:43:33 10° S 07:49:32 45° ESE 07:55:36 10° NE daylight
28 Nov - 09:29:44 10° WSW 09:35:56 51° NW 09:42:13 10° NNE daylight
28 Nov - 11:18:53 10° WNW 11:23:51 23° NNW 11:28:49 10° NNE daylight
28 Nov - 13:07:58 10° NW 13:12:36 20° N 13:17:11 10° NE daylight
28 Nov - 14:54:57 10° NNW 15:00:53 37° NE 15:06:40 10° ESE daylight
28 Nov - 16:41:25 10° NW 16:47:46 69° WSW 16:53:57 10° SSE visible
28 Nov - 18:29:41 10° WNW 18:33:00 15° WSW 18:36:16 10° SW visible
29 Nov - 06:10:54 10° SE 06:13:36 13° E 06:16:19 10° ENE visible
29 Nov - 07:52:29 10° SSW 07:58:44 62° ESE 08:05:05 10° NE daylight
29 Nov - 09:39:29 10° WSW 09:45:29 41° NW 09:51:33 10° NNE daylight
29 Nov - 11:28:57 10° WNW 11:33:40 21° NNW 11:38:22 10° NE daylight
29 Nov - 13:17:35 10° NW 13:22:26 22° NNE 13:27:13 10° ENE daylight
29 Nov - 15:04:18 10° NNW 15:10:28 46° NE 15:16:28 10° ESE daylight
29 Nov - 16:50:52 10° NW 16:57:00 51° WSW 17:02:57 10° S visible
30 Nov - 06:18:17 10° SSE 06:22:32 19° ESE 06:26:49 10° ENE visible
30 Nov - 08:01:39 10° SSW 08:08:01 82° SE 08:14:29 10° NE daylight
30 Nov - 09:49:22 10° W 09:55:06 33° NNW 10:00:53 10° NNE daylight
30 Nov - 11:38:59 10° NW 11:43:31 20° N 11:48:02 10° NE daylight
30 Nov - 13:27:06 10° NNW 13:32:14 24° NNE 13:37:17 10° ENE daylight
30 Nov - 15:13:38 10° NW 15:19:58 58° NE 15:26:08 10° SE daylight
30 Nov - 17:00:24 10° NW 17:06:09 37° WSW 17:11:44 10° S visible
01 Dec - 06:26:23 10° SSE 06:31:32 27° ESE 06:36:45 10° NE visible
01 Dec - 08:11:00 10° SW 08:17:22 77° NW 08:23:51 10° NE daylight
01 Dec - 09:59:20 10° W 10:04:47 28° NNW 10:10:16 10° NNE daylight
01 Dec - 11:48:54 10° NW 11:53:22 19° N 11:57:50 10° NE daylight
01 Dec - 13:36:32 10° NNW 13:41:58 28° NNE 13:47:18 10° E daylight
01 Dec - 15:22:59 10° NW 15:29:24 76° NE 15:35:38 10° SE daylight
01 Dec - 17:10:05 10° NW 17:15:13 27° WSW 17:20:14 10° SSW visible
02 Dec - 06:34:53 10° S 06:40:37 37° ESE 06:46:26 10° NE visible
02 Dec - 08:20:30 10° SW 08:26:48 59° NW 08:33:11 10° NE daylight
02 Dec - 10:09:23 10° WNW 10:14:31 24° NNW 10:19:41 10° NNE daylight
02 Dec - 11:58:42 10° NW 12:03:14 19° N 12:07:44 10° NE daylight
02 Dec - 13:45:55 10° NNW 13:51:40 33° NNE 13:57:16 10° E daylight
02 Dec - 15:32:20 10° NW 15:38:45 83° SW 15:44:59 10° SSE daylight
02 Dec - 17:20:01 10° WNW 17:24:13 19° WSW 17:28:20 10° SW visible
03 Dec - 06:43:41 10° S 06:49:47 51° ESE 06:55:58 10° NE visible
03 Dec - 08:30:10 10° WSW 08:36:18 47° NW 08:42:31 10° NNE daylight
03 Dec - 10:19:27 10° WNW 10:24:19 22° NNW 10:29:11 10° NNE daylight
03 Dec - 12:08:24 10° NW 12:13:05 20° NNE 12:17:43 10° ENE daylight
03 Dec - 13:55:16 10° NNW 14:01:17 40° NE 14:07:08 10° ESE daylight
03 Dec - 15:41:45 10° NW 15:48:02 62° WSW 15:54:08 10° SSE daylight
03 Dec - 17:30:34 10° WNW 17:33:08 13° W 17:35:41 10° SW visible
04 Dec - 05:10:21 10° SE 05:13:45 15° ESE 05:17:10 10° ENE visible
04 Dec - 06:52:41 10° SSW 06:59:00 69° ESE 07:05:25 10° NE visible
04 Dec - 08:39:57 10° WSW 08:45:53 38° NW 08:51:50 10° NNE daylight
04 Dec - 10:29:31 10° WNW 10:34:08 20° N 10:38:47 10° NE daylight
04 Dec - 12:17:58 10° NNW 12:22:54 22° NNE 12:27:46 10° ENE daylight
04 Dec - 14:04:36 10° NNW 14:10:50 50° NE 14:16:53 10° ESE daylight
04 Dec - 15:51:14 10° NW 15:57:14 45° WSW 16:03:03 10° S daylight
05 Dec - 05:18:04 10° SSE 05:22:42 22° ESE 05:27:23 10° ENE visible
05 Dec - 07:01:55 10° SW 07:08:19 90° SW 07:14:48 10° NE visible
05 Dec - 08:49:53 10° W 08:55:31 31° NNW 09:01:11 10° NNE daylight
05 Dec - 10:39:29 10° NW 10:44:00 19° N 10:48:28 10° NE daylight
05 Dec - 12:27:27 10° NNW 12:32:41 25° NNE 12:37:49 10° ENE daylight
05 Dec - 14:13:56 10° NW 14:20:19 64° NE 14:26:30 10° SE daylight
05 Dec - 16:00:49 10° NW 16:06:21 33° WSW 16:11:45 10° S daylight
06 Dec - 05:26:20 10° SSE 05:31:45 30° ESE 05:37:12 10° NE visible
06 Dec - 07:11:20 10° SW 07:17:42 70° NW 07:24:09 10° NE daylight
06 Dec - 08:59:53 10° W 09:05:14 27° NNW 09:10:34 10° NNE daylight
06 Dec - 10:49:23 10° NW 10:53:51 19° N 10:58:18 10° NE daylight
06 Dec - 12:36:52 10° NNW 12:42:24 29° NNE 12:47:50 10° E daylight
06 Dec - 14:23:17 10° NW 14:29:43 83° NE 14:35:56 10° SE daylight
06 Dec - 16:10:34 10° WNW 16:15:24 23° WSW 16:20:07 10° SSW daylight
